FW1519 Weather Reports


Display with metric or nautical units.
time (UTC)temp
F
wind
direction
speed
MPH
gust
MPH
rain 1hr
in
rain 24hr
in
rain mn
in
humidity
%
barometer
mb
20260510015003 52 340 6.0 13.0 0.00 0.20 0.20 40 1013.5
20260510014501 52 355 8.0 15.0 0.00 0.20 0.20 39 1013.4
20260510013959 53 325 8.0 15.0 0.00 0.20 0.20 39 1013.2
20260510013455 53 347 8.0 16.0 0.00 0.20 0.20 39 1013.1
20260510012957 53 302 8.0 16.0 0.00 0.20 0.20 39 1013.1
20260510012456 53 319 9.0 18.0 0.00 0.20 0.20 39 1012.9
20260510011956 53 348 9.0 18.0 0.00 0.20 0.20 38 1012.8
20260510011502 53 331 8.0 14.0 0.00 0.20 0.20 38 1012.8
20260510010956 54 348 7.0 15.0 0.00 0.20 0.20 38 1012.5
20260510010449 54 345 6.0 15.0 0.00 0.20 0.20 38 1012.5
20260510005437 54 309 6.0 13.0 0.00 0.20 0.20 38 1012.4
20260510004937 54 318 7.0 14.0 0.00 0.20 0.20 38 1012.3
20260510004437 54 309 8.0 14.0 0.00 0.20 0.20 38 1012.3
20260510003435 54 329 9.0 17.0 0.00 0.20 0.20 36 1012.1
20260510002937 55 346 9.0 17.0 0.00 0.20 0.20 35 1012.0
20260510001937 55 18 10.0 20.0 0.00 0.20 0.20 36 1011.9
20260510001436 55 342 11.0 20.0 0.00 0.20 0.20 35 1011.8
20260510000934 55 323 9.0 17.0 0.00 0.20 0.20 35 1011.7
20260510000433 55 329 9.0 16.0 0.00 0.20 0.20 36 1011.6
20260509235934 55 302 9.0 16.0 0.00 0.20 0.20 35 1011.6
20260509234934 55 0 9.0 15.0 0.00 0.20 0.20 35 1011.5
20260509234432 55 301 9.0 17.0 0.00 0.20 0.20 35 1011.4
20260509233933 55 311 11.0 20.0 0.00 0.20 0.20 35 1011.4
20260509233432 55 333 12.0 20.0 0.00 0.20 0.20 35 1011.4
20260509232931 55 326 10.0 19.0 0.00 0.20 0.20 35 1011.2
20260509232424 55 294 9.0 20.0 0.00 0.20 0.20 36 1011.2
20260509231919 55 324 9.0 20.0 0.00 0.20 0.20 35 1011.2
20260509231412 55 296 9.0 18.0 0.00 0.20 0.20 36 1011.1
20260509230912 56 311 8.0 18.0 0.00 0.20 0.20 35 1011.2
20260509230410 56 322 9.0 17.0 0.00 0.20 0.20 35 1011.1
20260509225909 56 302 10.0 18.0 0.00 0.20 0.20 34 1011.1
20260509225409 56 301 10.0 19.0 0.00 0.20 0.20 34 1011.0
20260509224910 56 316 10.0 19.0 0.00 0.20 0.20 34 1011.1
20260509224409 57 311 9.0 16.0 0.00 0.20 0.20 34 1011.0
20260509223907 57 310 10.0 22.0 0.00 0.20 0.20 33 1010.8
20260509223407 57 313 13.0 24.0 0.00 0.20 0.20 33 1010.9
20260509222905 57 300 13.0 24.0 0.00 0.20 0.20 33 1010.9
20260509221402 56 305 13.0 22.0 0.00 0.20 0.20 34 1010.8
20260509220902 57 321 12.0 22.0 0.00 0.20 0.20 33 1010.7
20260509220401 57 314 13.0 21.0 0.00 0.20 0.20 34 1010.6
20260509215401 57 299 13.0 24.0 0.00 0.20 0.20 33 1010.6
20260509214902 57 301 9.0 23.0 0.00 0.20 0.20 32 1010.5
20260509214404 58 280 9.0 22.0 0.00 0.20 0.20 33 1010.4
20260509213856 57 276 13.0 22.0 0.00 0.20 0.20 34 1010.5
20260509213351 57 296 14.0 24.0 0.00 0.20 0.20 34 1010.4
20260509212845 57 286 14.0 24.0 0.00 0.20 0.20 33 1010.4
20260509211831 56 339 14.0 25.0 0.00 0.20 0.20 34 1010.3
20260509211333 56 335 15.0 25.0 0.00 0.20 0.20 33 1010.2
20260509210332 57 287 14.0 23.0 0.00 0.20 0.20 34 1010.2
20260509205833 57 268 14.0 24.0 0.00 0.20 0.20 34 1010.2
20260509205331 57 315 13.0 25.0 0.00 0.20 0.20 34 1010.1
20260509204832 57 329 11.0 25.0 0.00 0.20 0.20 36 1010.2
20260509203828 56 327 12.0 21.0 0.00 0.20 0.20 36 1010.2
20260509203329 56 284 11.0 19.0 0.00 0.20 0.20 36 1010.3
20260509202329 56 298 12.0 22.0 0.00 0.20 0.20 36 1010.1
20260509201329 56 297 13.0 26.0 0.00 0.20 0.20 37 1010.2
20260509200829 56 284 14.0 26.0 0.00 0.20 0.20 36 1010.3
20260509200330 56 333 13.0 23.0 0.00 0.20 0.20 35 1010.3
20260509194822 55 340 14.0 29.0 0.00 0.20 0.20 37 1010.2
20260509194317 55 317 11.0 22.0 0.00 0.20 0.20 39 1010.0
20260509193810 55 306 13.0 25.0 0.00 0.20 0.20 39 1010.1
20260509193303 55 319 13.0 25.0 0.00 0.20 0.20 39 1010.1
20260509192758 55 332 10.0 21.0 0.00 0.20 0.20 39 1010.0
20260509192253 55 286 10.0 20.0 0.00 0.20 0.20 43 1010.0
20260509191749 54 319 11.0 22.0 0.00 0.20 0.20 40 1009.9
20260509190749 55 325 11.0 19.0 0.00 0.20 0.20 40 1009.9
20260509190248 55 285 12.0 23.0 0.00 0.20 0.20 40 1009.9
20260509185749 54 355 13.0 23.0 0.00 0.20 0.20 40 1009.8
20260509184749 55 343 8.0 19.0 0.00 0.20 0.20 42 1009.7
20260509183749 55 309 10.0 20.0 0.00 0.20 0.20 43 1009.5
20260509183249 55 274 10.0 17.0 0.00 0.20 0.20 43 1009.4
20260509182249 54 335 11.0 19.0 0.00 0.20 0.20 44 1009.5
20260509181749 53 329 12.0 19.0 0.00 0.20 0.20 42 1009.4
20260509181249 53 294 12.0 23.0 0.00 0.20 0.20 42 1009.4
20260509180750 53 273 11.0 23.0 0.00 0.20 0.20 44 1009.3
20260509175749 53 312 12.0 20.0 0.00 0.20 0.20 41 1009.5
20260509173230 53 338 9.0 18.0 0.00 0.20 0.20 43 1009.2
20260509172729 53 315 9.0 21.0 0.00 0.20 0.20 46 1009.1
20260509172229 52 298 10.0 21.0 0.00 0.20 0.20 44 1009.1
20260509171731 52 338 12.0 22.0 0.00 0.20 0.20 42 1009.1
20260509171230 52 329 14.0 23.0 0.00 0.20 0.20 42 1009.1
20260509165230 52 296 13.0 24.0 0.00 0.20 0.20 43 1008.9
20260509164730 51 309 13.0 23.0 0.00 0.20 0.20 43 1008.8
20260509164229 51 306 13.0 23.0 0.00 0.20 0.20 43 1008.6
20260509163730 51 298 13.0 21.0 0.00 0.20 0.20 43 1008.6
20260509163229 51 317 13.0 22.0 0.00 0.20 0.20 44 1008.5
20260509162730 51 340 11.0 22.0 0.00 0.20 0.20 44 1008.4
20260509161729 51 320 12.0 26.0 0.00 0.20 0.20 46 1008.3
20260509161231 51 300 10.0 19.0 0.00 0.20 0.20 47 1008.2
20260509160732 51 347 10.0 19.0 0.00 0.20 0.20 49 1008.1
20260509160230 51 296 10.0 19.0 0.00 0.20 0.20 46 1008.1
20260509155729 51 328 11.0 22.0 0.00 0.20 0.20 48 1008.1
20260509155229 51 319 13.0 22.0 0.00 0.20 0.20 48 1008.1
20260509154730 50 304 13.0 21.0 0.00 0.20 0.20 48 1008.0
20260509153730 50 331 12.0 20.0 0.00 0.20 0.20 50 1007.9
20260509153230 50 314 13.0 25.0 0.00 0.20 0.20 49 1007.9
20260509152730 50 332 13.0 25.0 0.00 0.20 0.20 49 1008.0
20260509152229 50 338 12.0 21.0 0.00 0.20 0.20 49 1007.9
20260509151729 50 282 12.0 23.0 0.00 0.20 0.20 50 1007.7
20260509151230 50 301 11.0 23.0 0.00 0.20 0.20 53 1007.7
20260509150729 50 331 8.0 22.0 0.00 0.20 0.20 55 1007.7
20260509150229 50 315 9.0 21.0 0.00 0.20 0.20 56 1007.5
20260509145730 49 322 12.0 21.0 0.00 0.20 0.20 53 1007.5
20260509145229 49 320 11.0 20.0 0.00 0.20 0.20 55 1007.4
20260509143729 49 309 13.0 23.0 0.00 0.20 0.20 55 1007.3
20260509143231 49 347 12.0 23.0 0.00 0.20 0.20 57 1007.2
20260509142730 49 355 12.0 19.0 0.00 0.20 0.20 58 1007.2
20260509142231 49 316 12.0 21.0 0.00 0.20 0.20 59 1007.1
20260509141725 48 349 12.0 21.0 0.00 0.20 0.20 63 1007.1
20260509141225 48 306 12.0 19.0 0.00 0.20 0.20 65 1007.1
20260509140724 48 350 9.0 19.0 0.00 0.20 0.20 64 1006.9
20260509140226 48 310 9.0 18.0 0.00 0.20 0.20 70 1006.6
20260509135725 48 332 12.0 19.0 0.00 0.20 0.20 70 1006.6
20260509135227 48 344 11.0 19.0 0.00 0.20 0.20 70 1006.6
20260509134726 48 348 9.0 18.0 0.00 0.20 0.20 73 1006.6
20260509134226 48 299 8.0 13.0 0.00 0.20 0.20 75 1006.6
20260509133725 47 342 9.0 15.0 0.00 0.20 0.20 75 1006.6
20260509133221 47 302 9.0 19.0 0.00 0.20 0.20 76 1006.3
20260509132222 47 345 10.0 19.0 0.00 0.20 0.20 78 1006.3
20260509131721 47 305 10.0 19.0 0.00 0.20 0.20 78 1006.2
20260509131221 47 335 10.0 17.0 0.00 0.20 0.20 79 1006.1
20260509130722 46 0 9.0 17.0 0.00 0.20 0.20 80 1006.0
20260509125722 46 301 10.0 20.0 0.00 0.20 0.20 82 1005.9
20260509124720 46 298 9.0 17.0 0.00 0.20 0.20 86 1005.7
20260509124221 46 284 8.0 14.0 0.00 0.20 0.20 87 1005.6
20260509123720 46 300 6.0 14.0 0.00 0.20 0.20 90 1005.5
20260509123221 45 337 5.0 12.0 0.00 0.20 0.20 91 1005.5
20260509122719 45 316 5.0 12.0 0.00 0.20 0.20 92 1005.4
20260509122221 45 302 4.0 11.0 0.00 0.20 0.20 92 1005.3
20260509121716 45 294 3.0 11.0 0.00 0.20 0.20 93 1005.2
20260509121218 44 308 3.0 6.0 0.00 0.20 0.20 93 1005.1
20260509120215 44 281 2.0 5.0 0.00 0.20 0.20 93 1005.0
20260509115214 44 297 3.0 7.0 0.00 0.20 0.20 93 1004.7
20260509113211 44 314 3.0 7.0 0.00 0.20 0.20 93 1004.4
20260509112711 44 304 3.0 8.0 0.00 0.20 0.20 93 1004.3
20260509112210 44 324 4.0 9.0 0.00 0.20 0.20 93 1004.3
20260509111708 44 310 5.0 10.0 0.00 0.20 0.20 93 1004.2
20260509111209 44 313 4.0 10.0 0.00 0.20 0.20 93 1004.1
20260509110710 44 311 4.0 10.0 0.00 0.20 0.20 93 1004.1
20260509110209 44 309 5.0 10.0 0.00 0.20 0.20 93 1004.0
20260509105708 44 286 4.0 10.0 0.00 0.20 0.20 93 1004.0
20260509105207 44 325 5.0 9.0 0.01 0.20 0.20 93 1003.9
20260509104706 44 311 4.0 7.0 0.01 0.20 0.20 93 1003.8
20260509104211 44 294 3.0 8.0 0.01 0.20 0.20 93 1003.8
20260509103710 45 266 3.0 8.0 0.01 0.20 0.20 93 1003.6
20260509103207 45 291 3.0 7.0 0.01 0.20 0.20 93 1003.5
20260509102706 45 302 2.0 7.0 0.01 0.20 0.20 93 1003.5
20260509102206 45 294 2.0 4.0 0.01 0.20 0.20 93 1003.3
20260509101705 45 280 2.0 4.0 0.01 0.20 0.20 93 1003.3
20260509101203 46 271 2.0 4.0 0.01 0.20 0.20 93 1003.3
20260509100706 46 281 2.0 3.0 0.01 0.20 0.20 93 1003.2
20260509100202 46 270 1.0 3.0 0.01 0.20 0.20 93 1003.1
20260509095200 46 278 1.0 3.0 0.01 0.19 0.19 92 1003.1
20260509094703 46 301 1.0 2.0 0.02 0.19 0.19 93 1003.0
20260509094201 46 304 0.0 1.0 0.03 0.19 0.19 92 1002.9
20260509093703 46 305 0.0 1.0 0.04 0.19 0.19 92 1002.9
20260509093202 46 305 0.0 2.0 0.05 0.19 0.19 92 1002.8
20260509092655 46 305 1.0 2.0 0.05 0.19 0.19 92 1002.7
20260509091644 46 309 0.0 1.0 0.07 0.19 0.19 92 1002.7
20260509090645 46 309 0.0 1.0 0.09 0.19 0.19 91 1002.6
20260509090143 46 309 0.0 0.0 0.11 0.19 0.19 91 1002.4
20260509085138 46 309 0.0 1.0 0.12 0.18 0.18 91 1002.6
20260509084638 46 309 1.0 3.0 0.12 0.17 0.17 91 1002.8
20260509084138 46 310 1.0 4.0 0.12 0.16 0.16 90 1002.7
20260509083637 46 297 1.0 4.0 0.12 0.15 0.15 90 1002.8
20260509083136 46 345 2.0 4.0 0.12 0.14 0.14 90 1002.6
20260509082632 46 350 3.0 5.0 0.13 0.14 0.14 89 1002.6
20260509082130 47 355 2.0 5.0 0.12 0.13 0.13 89 1002.6
20260509081131 47 311 2.0 5.0 0.11 0.11 0.11 88 1002.8
20260509080630 47 336 2.0 5.0 0.10 0.10 0.10 87 1002.8
20260509080131 47 329 2.0 5.0 0.08 0.08 0.08 86 1002.9
20260509075630 47 327 3.0 10.0 0.07 0.07 0.07 85 1002.8
20260509075131 47 314 4.0 10.0 0.06 0.06 0.06 84 1003.0
20260509074629 48 314 3.0 10.0 0.05 0.05 0.04 83 1003.0
20260509074131 48 315 4.0 10.0 0.04 0.04 0.04 81 1003.1
20260509073119 49 289 5.0 10.0 0.02 0.02 0.02 78 1003.3
20260509072613 49 291 5.0 11.0 0.01 0.01 0.01 76 1003.3
20260509072107 50 296 5.0 11.0 0.01 0.01 0.01 73 1003.3
20260509071104 51 288 8.0 15.0 0.00 0.00 0.00 67 1003.3
20260509070105 53 279 11.0 20.0 0.00 0.00 0.00 59 1003.3
20260509065604 54 291 10.0 20.0 0.00 0.00 0.00 53 1003.2
20260509064602 55 290 6.0 14.0 0.00 0.00 0.00 48 1003.1
20260509064102 54 298 7.0 11.0 0.00 0.00 0.00 49 1003.1
20260509063602 53 327 6.0 13.0 0.00 0.00 0.00 49 1002.9
20260509063103 53 297 6.0 13.0 0.00 0.00 0.00 49 1002.9
20260509062602 52 319 5.0 10.0 0.00 0.00 0.00 48 1003.0
20260509061602 50 294 5.0 11.0 0.00 0.00 0.00 51 1002.8
20260509055603 48 0 1.0 4.0 0.00 0.00 0.00 59 1002.2
20260509055101 48 323 1.0 4.0 0.00 0.00 0.00 60 1002.4
20260509054556 48 270 0.0 2.0 0.00 0.00 0.00 57 1002.3
20260509054050 48 269 0.0 1.0 0.00 0.00 0.00 56 1002.3
20260509053543 48 269 0.0 0.0 0.00 0.00 0.00 56 1002.1
20260509052543 48 269 0.0 0.0 0.00 0.00 0.00 54 1002.2
20260509052043 49 269 0.0 0.0 0.00 0.00 0.00 56 1002.2
20260509051540 49 269 0.0 0.0 0.00 0.00 0.00 56 1002.2
20260509051040 49 269 0.0 0.0 0.00 0.00 0.00 55 1002.3
20260509050542 49 269 0.0 0.0 0.00 0.00 0.00 56 1002.3
20260509050042 49 269 0.0 0.0 0.00 0.00 0.00 55 1002.2
20260509045539 50 269 0.0 0.0 0.00 0.00 0.00 54 1002.3
20260509044540 50 269 0.0 0.0 0.00 0.00 0.00 50 1002.5
20260509044040 50 269 0.0 0.0 0.00 0.00 0.00 49 1002.5
20260509043541 50 269 0.0 0.0 0.00 0.00 0.00 47 1002.5
20260509042541 51 269 0.0 0.0 0.00 0.00 0.00 48 1002.6
20260509042041 52 269 0.0 1.0 0.00 0.00 0.00 50 1002.7
20260509041540 52 269 0.0 2.0 0.00 0.00 0.00 49 1002.6
20260509041040 52 269 1.0 2.0 0.00 0.00 0.00 46 1002.8
20260509040541 53 273 0.0 1.0 0.00 0.00 0.00 43 1002.6
20260509040042 54 274 0.0 1.0 0.00 0.00 0.00 40 1002.8
20260509035541 55 275 0.0 1.0 0.00 0.00 0.00 40 1002.9
20260509035038 55 278 0.0 1.0 0.00 0.00 0.00 42 1003.0
20260509034539 55 278 0.0 1.0 0.00 0.00 0.00 40 1003.0
20260509034038 56 278 0.0 1.0 0.00 0.00 0.00 41 1003.0
20260509033538 56 278 0.0 1.0 0.00 0.00 0.00 37 1002.9
20260509033037 56 278 1.0 4.0 0.00 0.00 0.00 37 1003.0
20260509032534 56 279 2.0 4.0 0.00 0.00 0.00 35 1002.9
20260509032034 56 277 2.0 4.0 0.00 0.00 0.00 35 1003.1
20260509031034 57 299 3.0 7.0 0.00 0.00 0.00 35 1003.1
20260509030534 57 309 3.0 9.0 0.00 0.00 0.00 34 1003.1
20260509030031 57 295 4.0 9.0 0.00 0.00 0.00 34 1003.0
20260509025030 57 307 5.0 10.0 0.00 0.00 0.00 34 1002.9
20260509024529 58 268 6.0 10.0 0.00 0.00 0.00 34 1002.9
20260509024030 58 310 6.0 10.0 0.00 0.00 0.00 34 1002.9
20260509023529 58 293 5.0 9.0 0.00 0.00 0.00 33 1002.8
20260509023030 58 304 6.0 12.0 0.00 0.00 0.00 33 1002.8
20260509022526 58 297 6.0 12.0 0.00 0.00 0.00 33 1002.8
20260509022020 59 288 6.0 12.0 0.00 0.00 0.00 32 1002.8
20260509021515 59 265 7.0 12.0 0.00 0.00 0.00 32 1002.7
20260509021009 59 261 7.0 13.0 0.00 0.00 0.00 32 1002.6
20260509020509 59 296 7.0 13.0 0.00 0.00 0.00 32 1002.6
20260509020009 60 286 7.0 12.0 0.00 0.00 0.00 32 1002.5